401  
ASUS46 KEKA 120714  
RWREKA  
EUREKA AREA WEATHER ROUNDUP  
NATIONAL WEATHER SERVICE EUREKA CA  
1200 AM PDT MON APR 12 2021  
 
NOTE: "FAIR" INDICATES FEW OR NO CLOUDS BELOW 12,000 FEET WITH NO  
SIGNIFICANT WEATHER AND/OR S TO VISIBILITY
.  
 
SOUTHWEST OREGON...  
 
CITY SKY/WX TMP DP RH WIND PRES REMARKS
 
MEDFORD CLEAR 49 33 54 CALM 30.07R  
KLAMATH FALLS CLEAR 40 13 33 NE10 30.07R  
NORTH BEND CLEAR 43 39 86 CALM 30.19S  
ROSEBURG CLEAR 48 25 40 CALM 30.14F  
SEXTON SUMMIT NOT AVBL  
BROOKINGS CLEAR 61 32 33 NE14G31 29.95S  
 
NORTHWEST CALIFORNIA...  
 
CITY SKY/WX TMP DP RH WIND PRES REMARKS
 
CRESCENT CITY CLEAR 48 40 73 N6 29.94F HAZE  
MCKINLEYVILLE CLEAR 41 39 93 NE3 29.92S  
EUREKA N/A 43 32 65 CALM 29.93S  
FORTUNA N/A 39 39 100 SE6 29.92F  
WEAVERVILLE NOT AVBL  
TRINITY CENTER NOT AVBL  
UKIAH CLEAR 53 43 68 CALM 29.85R  
 
NORTH & CENTRAL CALIFORNIA...  
 
CITY SKY/WX TMP DP RH WIND PRES REMARKS
 
YREKA CLEAR 48 28 46 N13 30.03S  
MOUNT SHASTA CLEAR 48 25 40 VRB5 30.00S  
REDDING CLEAR 69 23 17 N12G21 29.83S  
RED BLUFF CLEAR 67 26 21 NW12 29.82R  
CHICO N/A 61 32 33 CALM 29.81R  
YUBA CITY CLEAR 58 40 51 E3 29.78S  
SACRAMENTO CLEAR 54 43 66 SW7 29.78S  
SANTA ROSA CLEAR 45 42 89 CALM 29.85S  
NAPA CLEAR 47 42 83 CALM 29.85S  
TRAVIS AFB NOT AVBL  
SAN FRANCISCO CLEAR 51 43 74 SW5 29.87F  
OAKLAND PTCLDY 50 44 80 S3 29.87F  
STOCKTON NOT AVBL  
SALINAS CLOUDY 50 44 80 N6 29.88S  
MONTEREY CLOUDY 52 45 77 SW9 29.89F  
 

 
 
 
CLICK HERE TO GO TO PREVIOUS BULLETINS.

The Nexlab CA Page Main Text Page